Reflectivity
5 -15 -20 -20 -20 -20 -20 -20 -20 -20 -20 -20 -20 -20 -20 -20 3 -19 -20 -10 -20 -19 6 -19 -11 6 -20 -20 -19 -20 -13 2 -20 -17 16 3 -17 -18
-0 -2 -20 -20 -20 -12 -18 -20 -12 -16 -20 -20 -20 -20 -20 -20 -19 -20 -20 -20 -20 -12 7 -12 -17 3 -4 1 9 -7 6 -20 -6 11 -12 10 16 22
11 -19 -20 -20 -18 -20 -20 -20 -20 -20 -20 -20 -20 -20 -20 -20 -20 -20 -20 -0 -6 4 16 -18 3 7 5 10 4 9 11 4 -15 -16 -2 2 10 18
26 16 -20 -20 -20 -20 -20 -20 -20 -20 -20 -20 -20 -20 -20 -20 -20 -20 -20 -4 -20 -14 8 19 2 10 7 7 3 8 3 -9 -20 -20 -20 -19 -19 4
26 8 -13 -20 -20 -20 -20 -20 -20 -20 -20 -20 -20 -20 -20 -20 -20 -20 -20 -20 -20 12 17 13 3 1 1 1 1 6 -6 -20 -20 4 -20 -20 -20 -18
24 12 -17 -13 -11 -20 -20 -20 -20 -20 -20 -20 -20 -10 -14 -16 -20 -20 -14 5 -1 -3 6 15 10 -8 1 -5 -2 -20 -17 -5 1 -1 -20 -20 -20 -20
23 22 2 -2 4 1 -18 -20 -20 -20 -20 -20 -20 -20 0 -20 -20 -14 4 0 -11 -10 15 2 -2 -9 -15 -19 9 7 10 12 -18 -20 -20 -20 -20 -20
25 21 26 12 -2 3 -20 -20 -20 -20 -20 -20 -20 -20 -20 -11 13 16 -20 -3 2 -13 -19 -20 -20 -20 -20 -18 14 12 9 -20 -20 -20 -20 -20 -20 -20
28 29 22 -11 -8 -20 -13 -20 -20 -20 -20 -20 -20 -20 -14 -19 -20 -20 -20 -20 -20 -20 -20 -20 -20 -20 -20 -20 5 -8 -20 -20 -20 -20 -20 -20 -20 -20
18 -9 -15 6 -16 -15 -20 -20 -20 -20 -20 -19 -20 -20 -20 -20 -20 -20 -20 -20 -20 -20 -20 -20 -20 -20 -20 -20 -20 -20 -20 -20 -20 -20 -20 -20 -20 -20
-20 -20 -13 -13 20 -9 -12 -20 -20 -20 -20 -20 -20 -20 -20 -20 -20 -20 -20 -20 -20 -20 -20 -20 -20 -20 -20 -20 -20 -20 -20 -20 -20 -20 -20 -20 -20 -20
-20 -13 12 11 18 8 -9 -20 -20 -20 -20 -20 -20 -20 -20 -20 -20 -20 -20 -20 -20 -20 -20 -20 -20 -20 -20 -20 -20 -20 -20 -20 -20 -20 -20 -20 -20 -20
-20 -14 -7 14 18 10 -1 -20 -20 -20 -20 -20 -20 -20 -20 -20 -20 -20 -20 -20 -20 -20 -20 -20 -20 -20 -20 -20 -20 -20 -20 -20 -20 -20 -20 -20 -20 -20
-20 -18 5 20 21 13 -6 -20 -20 -20 -20 -20 -20 -20 -20 -20 -20 -20 -20 -20 -20 -20 -20 -20 -20 -20 -20 -20 -20 -20 -20 -20 -20 -20 -20 -20 -20 -20
-20 -20 -20 -4 3 13 -20 -20 -20 -20 -20 -20 -20 -20 -20 -20 -20 -20 -20 -20 -20 -20 -20 -20 -20 -20 -20 -20 -20 -20 -20 -20 -20 -20 -20 -20 -20 -20
-20 -20 -20 -20 -20 -20 -20 -20 -20 -20 -20 -20 -20 -20 -20 -20 -20 -20 -20 -20 -20 -20 -20 -20 -20 -20 -20 -20 -20 -20 -20 -20 -20 -20 -20 -20 -20 -20
-20 -20 -20 -20 -20 -20 -20 -20 -20 -20 -20 -20 -20 -20 -20 -20 -20 -20 -20 -20 -20 -20 -20 -20 -20 -20 -20 -20 -20 -20 -20 -20 -20 -20 -20 -20 -20 -20
-20 -20 -20 -20 -20 -20 -20 -20 -20 -20 -20 -20 -20 -20 -20 -20 -20 -20 -20 -20 -20 -20 -20 -20 -20 -20 -20 -20 -20 -20 -20 -20 -20 -20 -20 -20 -20 -20
-20 -20 -20 -20 -20 -20 -20 -20 -20 -20 -20 -20 -20 -20 -20 -20 -20 -20 -20 -20 -20 -20 -20 -20 -20 -20 -20 -20 -20 -20 -20 -20 -20 -20 -20 -20 -20 -20
-20 -20 -20 -20 -20 -20 -20 -20 -20 -20 -20 -20 -20 -20 -20 -20 -20 -20 -20 -20 -20 -20 -20 -20 -20 -20 -20 -20 -20 -20 -20 -20 -20 -20 -20 -20 -20 -20
-19 -20 -20 -20 -20 -20 -20 -20 -20 -20 -20 -20 -20 -20 -20 -20 -20 -20 -20 -20 -20 -20 -20 -20 -20 -20 -20 -20 -20 -20 -20 -20 -20 -20 -20 -20 -20 -20
-20 -20 -20 -20 -20 -20 -20 -20 -20 -20 -20 -20 -20 -20 -20 -20 -20 -20 -20 -20 -20 -20 -20 -20 -20 -20 -20 -20 -20 -20 -20 -20 -20 -20 -20 -20 -20 -20
-20 -20 -20 -20 -20 -20 -20 -20 -20 -20 -20 -20 -20 -20 -20 -20 -20 -20 -20 -20 -20 -20 -20 -20 -20 -20 -20 -20 -16 -20 -20 -20 -20 -20 -20 -20 -20 -20
Wind_Speed
3 3 2 1 1 2 2 2 3 2 1 1 2 2 2 4 4 4 3 8 10 6 10 11 8 9 9 10 11 10 9 9 12 14 15 11 10 11
2 3 2 1 2 2 1 2 2 2 1 2 1 1 3 3 5 4 5 8 14 5 7 10 8 7 9 11 9 8 7 8 10 11 14 17 18 17
3 3 2 2 2 2 2 2 2 2 2 0 1 1 2 3 4 4 4 5 5 12 6 10 9 11 10 9 8 9 9 9 11 12 12 13 16 16
4 4 3 2 2 1 1 2 2 2 2 3 1 1 2 3 3 3 3 3 4 11 6 12 11 10 9 8 9 10 8 10 13 14 13 14 15 15
5 5 4 4 2 1 1 1 1 1 1 2 2 1 1 1 2 3 2 3 3 8 10 12 11 10 9 8 9 10 12 12 13 11 12 12 13 14
5 5 4 3 3 3 1 1 1 1 1 2 2 2 1 1 1 2 2 3 2 4 7 8 9 9 8 7 8 9 10 11 10 9 9 11 12 13
3 4 4 4 2 2 2 2 1 2 2 2 2 1 1 1 1 1 2 2 3 3 2 3 3 3 4 5 7 8 8 7 6 8 10 11 11 12
4 3 3 5 4 7 7 6 3 1 2 2 2 1 1 1 1 1 2 1 1 3 2 1 3 2 3 3 5 5 6 4 6 8 9 10 11 12
3 4 3 3 6 5 8 8 9 8 3 2 3 2 2 1 1 1 2 2 1 3 1 1 2 1 2 4 3 4 3 4 6 8 10 11 12 12
4 4 4 5 7 7 6 5 5 5 6 5 6 4 2 2 2 2 3 4 2 1 2 1 2 1 3 2 6 3 4 5 8 10 11 12 12 13
2 3 3 5 12 13 7 6 5 4 10 14 13 12 12 8 5 3 2 3 1 2 4 2 2 2 2 2 3 8 8 9 8 11 12 13 13 13
2 2 6 5 14 14 8 7 6 4 5 4 3 7 9 9 12 5 2 2 2 1 2 2 2 3 3 2 2 3 4 9 8 12 13 14 14 3
2 2 2 10 15 14 11 5 5 6 6 4 3 3 4 5 4 4 4 2 3 2 3 3 2 2 1 2 2 2 3 3 3 5 13 13 15 9
3 2 2 9 13 14 8 10 11 9 4 3 3 3 3 3 3 3 4 5 6 5 2 3 2 2 2 2 2 3 2 1 2 4 5 9 11 11
3 5 9 10 9 7 10 11 11 4 3 2 2 2 2 2 3 2 4 5 5 4 4 3 2 1 2 2 2 2 4 3 2 2 4 5 3 3
7 6 7 8 8 8 7 5 3 3 3 3 3 3 3 2 1 0 2 1 3 3 3 4 3 3 1 1 1 2 1 2 4 3 4 4 3 3
7 4 3 3 3 3 3 3 3 3 2 2 3 3 2 2 1 2 2 2 3 1 3 3 4 3 1 4 2 1 2 2 2 3 3 5 4 4
3 2 2 2 3 3 3 3 2 3 2 2 2 3 2 2 2 2 2 3 2 1 2 3 4 4 4 3 3 1 2 2 2 3 2 2 4 3
2 3 3 4 4 2 3 2 3 2 2 2 2 3 3 2 3 2 2 2 1 1 1 1 3 4 3 2 3 3 2 2 3 3 2 2 3 8
3 3 3 3 3 3 3 3 3 3 2 2 3 4 4 3 2 2 1 2 1 1 2 2 2 1 4 3 2 4 7 2 1 2 3 2 6 14
3 4 3 4 4 3 3 3 4 4 3 3 3 3 4 3 2 2 2 5 4 1 1 1 3 3 2 2 4 4 4 7 6 3 3 2 3 3
4 4 4 4 4 5 4 4 3 4 4 4 3 4 4 3 3 3 3 3 2 2 1 2 3 3 3 2 2 3 4 4 10 8 10 8 4 4
5 4 4 4 5 5 6 5 5 4 5 4 4 4 4 3 3 3 3 3 3 1 1 2 3 2 1 2 4 3 4 4 3 3 3 13 11 16
Wind_Direction
140 138 113 80 71 73 94 108 138 142 198 194 157 25 53 56 59 61 52 25 22 43 83 90 87 72 63 67 62 52 40 35 31 18 10 351 335 330
182 149 125 122 127 126 128 138 103 123 146 191 178 105 52 81 54 59 42 36 25 21 120 104 98 81 79 66 52 39 45 38 34 17 11 17 29 40
174 164 154 167 176 170 161 169 141 153 201 143 131 56 73 93 58 48 35 33 17 31 89 105 103 90 75 67 56 52 43 34 47 43 27 22 20 24
203 141 123 154 92 149 206 139 161 172 177 203 183 116 85 67 83 76 48 39 21 29 55 90 83 83 78 77 72 61 52 61 53 39 34 26 22 21
170 154 167 135 135 88 77 106 153 149 159 176 191 113 106 135 83 64 52 52 32 36 42 54 84 80 72 67 62 61 58 53 51 39 34 25 20 16
155 146 155 157 187 156 146 195 167 190 192 195 216 121 96 110 106 166 103 44 30 32 42 50 57 54 60 62 68 63 53 45 37 27 25 25 18 11
138 151 140 140 129 160 141 173 208 217 188 178 163 121 132 114 125 70 95 115 55 15 42 34 38 33 29 41 79 79 69 47 26 20 18 17 13 10
168 152 143 140 134 118 110 102 76 205 175 156 134 127 118 85 88 103 123 133 140 34 9 51 25 14 348 2 88 66 59 26 15 14 10 8 6 5
186 170 155 139 135 112 95 71 50 47 72 144 125 108 133 122 121 98 76 72 81 327 47 334 1 336 336 352 358 77 58 18 11 10 9 6 1 357
186 169 158 149 139 125 111 84 68 57 51 69 85 109 122 146 129 129 125 114 74 14 15 121 335 324 341 343 1 57 22 11 16 13 6 2 355 350
168 174 174 163 163 147 125 119 97 69 85 87 85 77 71 88 121 101 80 94 28 40 17 27 3 326 4 354 1 35 27 26 21 14 4 355 346 351
184 186 205 180 173 158 138 145 132 136 114 89 52 53 54 52 55 55 122 127 120 57 355 76 360 18 359 17 24 19 14 31 28 13 358 349 341 346
144 150 229 197 174 158 151 155 161 149 130 105 93 78 61 55 46 39 36 99 125 101 324 94 29 28 82 312 333 13 17 359 12 2 357 348 345 341
132 127 76 93 138 154 159 177 160 140 124 132 126 91 80 69 61 61 56 61 59 100 60 78 133 114 115 344 322 341 340 12 15 345 338 337 342 342
129 147 133 120 128 135 164 155 139 134 143 152 119 93 82 99 114 77 67 77 69 62 57 58 113 142 133 169 266 326 351 342 360 329 326 326 308 320
125 97 104 109 108 94 85 99 118 151 163 136 118 106 107 68 71 127 83 38 69 3 16 43 26 122 112 203 131 301 315 327 331 332 309 295 298 298
104 79 87 88 105 109 101 109 113 110 109 115 124 126 116 110 75 33 71 45 78 9 330 334 15 47 101 151 75 230 300 296 275 295 346 320 303 302
110 128 139 154 174 170 162 148 141 139 126 128 122 131 126 134 120 49 66 82 103 11 3 343 351 26 8 337 200 259 325 275 300 322 327 322 293 290
137 155 170 194 202 172 164 152 170 165 150 139 133 140 131 153 122 90 93 102 52 36 352 12 43 82 53 356 294 275 182 279 318 320 259 221 261 298
166 165 185 187 190 180 176 169 155 151 149 145 140 146 152 143 123 131 115 125 109 346 2 13 47 127 136 207 290 274 302 235 204 280 290 268 259 280
176 190 184 184 194 172 166 172 168 173 163 154 156 151 157 137 123 131 149 164 134 105 15 320 248 25 168 67 14 309 298 297 282 217 257 292 287 301
189 194 201 189 189 179 165 163 169 179 161 167 161 155 158 152 141 151 148 123 115 136 206 269 348 29 65 118 263 277 297 312 315 309 304 281 180 287
196 194 186 193 195 186 170 166 171 177 173 166 161 159 152 143 154 150 146 143 142 173 210 308 350 27 272 172 292 278 285 281 291 303 281 298 298 299